• MPC Preparation (Info)

  • MPEC 2022-V33 : 2022 UT24

    The following Minor Planet Electronic Circular may be linked-to from your own Web pages, but must not otherwise be redistributed electronically.

    A form allowing access to any MPEC is at the bottom of this page.


    Read MPEC 2022-V32 Read MPEC 2022-V34


    M.P.E.C. 2022-V33                              Issued 2022 November 2, 00:04 UT
    
         The Minor Planet Electronic Circulars contain information on unusual
             minor planets, routine data on comets and natural satellites,
             and occasional editorial announcements.  They are published
        on behalf of Division F of the International Astronomical Union by the
              Minor Planet Center, Smithsonian Astrophysical Observatory,
                              Cambridge, MA 02138, U.S.A.
    			  
                 Prepared using the Tamkin Foundation Computer Network
    
                                  MPC@CFA.HARVARD.EDU
                URL https://www.minorplanetcenter.net/    ISSN 1523-6714
    
                                    2022 UT24                                
    
    
    Observations:
         K22U24T  C2022 10 20.54463904 06 15.021+06 42 38.54         21.77GVEV033F52
         K22U24T  C2022 10 20.55700204 06 18.003+06 42 14.88         22.57GVEV033F52
         K22U24T  C2022 10 20.56933304 06 21.065+06 41 50.40         22.19GVEV033F52
         K22U24T  C2022 10 20.58159404 06 24.051+06 41 26.67         21.75GVEV033F52
         K22U24T* C2022 10 29.38819904 57 28.940-00 11 32.82         22.08GVEV033G96
         K22U24T  C2022 10 29.39338204 57 31.266-00 11 53.05         21.56GVEV033G96
         K22U24T  C2022 10 29.39857204 57 33.581-00 12 13.39         21.63GVEV033G96
         K22U24T  C2022 10 29.40375904 57 35.957-00 12 33.55         21.77GVEV033G96
         K22U24T KC2022 10 29.48261704 58 11.820-00 17 45.10         21.50GVEV033I52
         K22U24T KC2022 10 29.48726304 58 13.962-00 18 03.06         21.50GVEV033I52
         K22U24T KC2022 10 29.49189704 58 16.057-00 18 21.56         21.76GVEV033I52
         K22U24T  C2022 10 29.54192004 58 41.012-00 21 30.95         22.67GVEV033F51
         K22U24T  C2022 10 29.55466604 58 46.819-00 22 21.73         21.84GVEV033F51
         K22U24T  C2022 10 29.56747204 58 52.683-00 23 12.92         21.66GVEV033F51
         K22U24T pC2022 10 30.15517805 03 38.11 -01 03 25.8          20.9 GVEV033L01
         K22U24T pC2022 10 30.15876805 03 39.92 -01 03 40.4          21.4 GVEV033L01
         K22U24T KC2022 10 30.16197905 03 41.51 -01 03 53.5          21.3 GVEV033L01
         K22U24T pC2022 10 30.16558205 03 43.22 -01 04 08.7          20.8 GVEV033L01
         K22U24T |C2022 10 30.30307 05 04 53.50 -01 12 46.9          21.6 GVEV033807
         K22U24T |C2022 10 30.30936 05 04 56.62 -01 13 14.4          21.3 GVEV033807
         K22U24T |C2022 10 30.31546 05 04 59.54 -01 13 39.5          21.3 GVEV033807
         K22U24T KC2022 10 30.33884405 05 12.833-01 16 10.56         20.74GVEV033I52
         K22U24T KC2022 10 30.34270305 05 14.755-01 16 26.54         20.99GVEV033I52
         K22U24T KC2022 10 30.34656605 05 16.638-01 16 42.92         20.67GVEV033I52
         K22U24T  C2022 10 31.57739305 16 09.091-02 47 51.21         22.33GVEV033F51
    
    Observer details:
    807 Cerro Tololo Observatory, La Serena.  Observers T. Linder, R. Holmes, L.
        Horn.  1.00-m f/10.0 astrograph + CCD.
    F51 Pan-STARRS 1, Haleakala.  Observers J. Bulger, K. Chambers, T. Lowe, A.
        Schultz, I. Smith.  Measurers S. Chastel, J. Fairlamb, M. Huber, Y.
        Ramanjooloo, R. Wainscoat, R. Weryk.  1.8-m Ritchey-Chretien + CCD.
    F52 Pan-STARRS 2, Haleakala.  Observers J. Bulger, K. Chambers, T. Dukes, T.
        Lowe, A. Schultz, I. Smith.  Measurers S. Chastel, J. Fairlamb, M. Huber,
        Y. Ramanjooloo, R. Wainscoat, R. Weryk.  1.8-m Ritchey-Chretien + CCD.
    G96 Mt. Lemmon Survey.  Observer D. C. Fuls.  Measurers E. J. Christensen, D.
        Fay, J. B. Fazekas, D. C. Fuls, A. R. Gibbs, A. D. Grauer, H. Groeller, J.
        K. Hogan, R. A. Kowalski, S. M. Larson, G. J. Leonard, D. Rankin, R. L.
        Seaman, A. Serrano, F. C. Shelly, K. W. Wierzchos.  1.5-m reflector + 10K
        CCD.
    I52 Steward Observatory, Mt. Lemmon Station.  Observer R. A. Kowalski.
        Measurers E. J. Christensen, D. Fay, J. B. Fazekas, D. C. Fuls, A. R.
        Gibbs, A. D. Grauer, H. Groeller, J. K. Hogan, R. A. Kowalski, S. M.
        Larson, G. J. Leonard, D. Rankin, R. L. Seaman, A. Serrano, F. C. Shelly,
        K. W. Wierzchos.  1.0-m prime focus + CCD.
    L01 Visnjan Observatory, Tican.  Observers K. Korlevic, L. Poropat.  Measurer
        K. Korlevic.  1.0-m f/2.9 reflector + CCD.
    
    Orbital elements:
    2022 UT24                                                Earth MOID = 0.0113 AU
    Epoch 2022 Aug. 9.0 TT = JDT 2459800.5                  Veres                   
    M 320.89275              (2000.0)            P               Q                  
    n   0.28688208     Peri.  293.98876     -0.44042362     -0.89778229             
    a   2.2768466      Node   182.15304     +0.85565493     -0.41848841             
    e   0.6473821      Incl.    5.71490     +0.27181183     -0.13731137             
    P   3.44           H   23.72          G   0.15           U   8                  
    Residuals in seconds of arc
    221020 F52  0.2+  0.2-    221029 I52  0.2+  0.0     221030 807  0.0   0.2+
    221020 F52  0.4-  0.3+    221029 I52  0.2-  0.1-    221030 807 (0.9+  0.7-)
    221020 F52  0.3+  0.2-    221029 F51  0.0   0.1+    221030 807  0.2+  0.1-
    221020 F52  0.1-  0.1+    221029 F51  0.1-  0.0     221030 I52  0.3-  0.7-
    221029 G96  0.3+  0.2-    221029 F51  0.1+  0.2-    221030 I52  0.1+  0.3-
    221029 G96  0.0   0.0     221030 L01  1.0-  0.4+    221030 I52  0.0   0.3-
    221029 G96  0.5-  0.0     221030 L01  0.1-  0.8+    221031 F51 (1.1+  0.8-)
    221029 G96  0.1-  0.2+    221030 L01  0.4+  1.1+
    221029 I52  0.0   0.4-    221030 L01  0.3-  0.9+
    
    Ephemeris:
    2022 UT24                a,e,i = 2.28, 0.65, 6                   q = 0.8029
    Date    TT    R. A. (2000) Decl.     Delta      r    Elong.  Phase     V
    2022 10 03    03 14 44.2 +12 03 02   0.4653  1.3882   139.6    27.9    24.0
    ...
    2022 10 18    03 56 04.6 +07 57 46   0.2907  1.2431   143.9    28.2    22.8
    ...
    2022 10 26    04 34 05.4 +03 02 42   0.2122  1.1666   140.8    32.6    22.1
    ...
    2022 11 01    05 20 09.2 -03 20 49   0.1636  1.1104   132.8    41.0    21.6
    2022 11 02    05 30 11.1 -04 44 10   0.1567  1.1011   130.8    43.1    21.6
    2022 11 03    05 41 04.1 -06 13 43   0.1503  1.0920   128.5    45.4    21.5
    ...
    2022 11 09    07 07 27.8 -16 56 53   0.1235  1.0381   109.3    64.2    21.5
    ...
    2022 11 17    09 41 59.6 -28 05 06   0.1300  0.9707    78.2    94.2    22.6
    ...
    2022 12 02    12 37 08.2 -27 19 21   0.2320  0.8665    53.0   114.7    24.7
    
    M. P. C. Staff               (C) Copyright 2022 MPC           M.P.E.C. 2022-V33
    


    Read MPEC 2022-V32 Read MPEC 2022-V34


    MPEC number:

    Enter an MPEC number in one of the following forms:

    • 1997-B01 (the full form)
    • J97B01 (the packed version of the full form)
    • B01 (the abbreviated form)